This demonstration page uses our WeatherBlox Daily Observations layout. Learn more.

Left ArrowRight Arrow

47.50024, -111.30081

Hourly Observations for January 8, 2022

Temp ( °F °C ) Dew Point ( °F °C ) Humidity (%) Winds ( mph kmh ) Pressure ( in mb ) Visibility ( mi km ) Precip ( " mm )
12:53 am 00:53 Clear 3 -16.1 -1 -18.3 83 83 NE 9 15 29.63 1003 10 16 0.00 0.00
1:31 am 01:31 Partly Cloudy 1 -17.2 -3 -19.4 83 83 N 12 19 29.91 1013 8 13 0.00 0.00
1:40 am 01:40 Mostly Cloudy 1 -17.2 -3 -19.4 83 83 N 8 13 29.90 1013 8 13 0.00 0.00
1:53 am 01:53 Cloudy 0 -17.8 -3 -19.4 87 87 N 12 19 29.71 1006 9 14 0.00 0.00
2:53 am 02:53 Cloudy 0 -17.8 -4 -20 83 83 NNE 5 7 29.77 1008 9 14 0.00 0.00
3:53 am 03:53 Cloudy 0 -17.8 -5 -20.6 79 79 N 8 13 29.80 1009 10 16 0.00 0.00
4:50 am 04:50 Partly Cloudy -4 -20 -9 -23 77 77 NNW 7 11 30.10 1019 10 16 0.00 0.00
4:53 am 04:53 Mostly Clear -4 -20 -9 -22.8 79 79 NW 7 11 29.86 1011 10 16 0.00 0.00
5:53 am 05:53 Partly Cloudy -5 -20.6 -10 -23.3 79 79 NW 9 15 29.93 1014 10 16 0.00 0.00
6:53 am 06:53 Mostly Clear -7 -21.7 -12 -24.4 79 79 NNW 7 11 29.99 1016 10 16 0.00 0.00
7:53 am 07:53 Clear -8 -22.2 -14 -25.6 74 74 NNW 7 11 30.07 1018 10 16 0.00 0.00
8:53 am 08:53 Sunny -7 -21.7 -13 -25 75 75 Calm 30.14 1021 10 16 0.00 0.00
9:53 am 09:53 Sunny -5 -20.6 -13 -25 68 68 NW 5 7 30.18 1022 10 16 0.00 0.00
9:59 am 09:59 Sunny -5 -20.6 -13 -25 68 68 NW 6 9 30.43 1030 10 16 0.00 0.00
10:53 am 10:53 Sunny -3 -19.4 -11 -23.9 68 68 NW 8 13 30.22 1023 10 16 0.00 0.00
11:53 am 11:53 Sunny -1 -18.3 -10 -23.3 65 65 W 3 6 30.31 1026 10 16 0.00 0.00
12:53 pm 12:53 Sunny 1 -17.2 -9 -22.8 62 62 WSW 3 6 30.32 1027 10 16 0.00 0.00
1:53 pm 13:53 Sunny 1 -17.2 -7 -21.7 68 68 Calm 30.33 1027 10 16 0.00 0.00
2:53 pm 14:53 Sunny 3 -16.1 -7 -21.7 62 62 Calm 30.34 1028 10 16 0.00 0.00
3:53 pm 15:53 Sunny 4 -15.6 -6 -21.1 63 63 Calm 30.38 1029 10 16 0.00 0.00
4:53 pm 16:53 Clear 0 -17.8 -7 -21.7 72 72 N 3 6 30.44 1031 10 16 0.00 0.00
5:53 pm 17:53 Clear -3 -19.4 -9 -22.8 75 75 SW 5 7 30.48 1032 10 16 0.00 0.00
6:53 pm 18:53 Clear -1 -18.3 -7 -21.7 75 75 SSW 9 15 30.48 1032 10 16 0.00 0.00
7:53 pm 19:53 Clear 4 -15.6 -3 -19.4 73 73 SSW 15 24 30.45 1031 10 16 0.00 0.00
8:53 pm 20:53 Clear 9 -12.8 1 -17.2 70 70 SW 17 28 30.43 1030 10 16 0.00 0.00
9:53 pm 21:53 Clear 11 -11.7 2 -16.7 67 67 SW 13 20 30.42 1030 10 16 0.00 0.00
10:53 pm 22:53 Clear 16 -8.9 6 -14.4 65 65 SW 15 24 30.40 1030 10 16 0.00 0.00
11:53 pm 23:53 Clear 19 -7.2 8 -13.3 62 62 SW 16 26 30.39 1029 10 16 0.00 0.00

Powered by AerisWeather